Flag for Costa Rica Weather past 2 weeks in San Jose, Costa Rica

Now
70 °F

Clear.


Feels Like: 70 °F
Forecast: 60 / 84 °F
Wind: 12 mph from East

Location: Juan Santamaria


UV Index: 10 (Very high)

Visibility: 10 mi


Pressure: 29.97 "Hg

Humidity: 64%

Dew point: 57 °F

Location of San JoseLocation

Historic Weather in San Jose

°F

San Jose temperature yesterday

Maximum temperature yesterday: 88 °F (at 12:00 PM)
Minimum temperature yesterday: 70 °F (at 12:00 AM)
Average temperature yesterday: 75 °F

Past Weeks' High & Low Weather Summary

 TemperatureHumidityPressure
High90 °F (Apr 8, 1:00 PM)88% (Apr 7, 10:00 PM)30.08 "Hg (Apr 7, 10:00 PM)
Low66 °F (Apr 8, 3:00 AM)31% (Apr 17, 2:00 PM)29.89 "Hg (Apr 13, 4:00 PM)
Average76 °F59%29.98 "Hg
* Reported Apr 4 1:00 AM — Apr 19 1:00 AM, San Jose, Weather by CustomWeather, © 2014

Note: Actual official high and low records may vary slightly from our data, if they occured in-between our weather recording intervals... More about our weather records

Advertising

Historic Weather Conditions — Data for Previous 24 hours

 ConditionsComfort  
Time TempWeatherWind HumidityBarometerVisibility
1:00 AM
Apr 19
70 °FClear.12 mph64%29.97 "Hg10 mi
12:00 AM70 °FClear.9 mph64%29.98 "Hg10 mi
11:00 PM
Apr 18
70 °FClear.9 mph64%30.01 "Hg10 mi
10:00 PM70 °FClear.8 mph69%30.02 "Hg10 mi
9:00 PM70 °FClear.10 mph73%30.00 "Hg10 mi
8:00 PM70 °FClear.9 mph73%29.99 "Hg10 mi
7:00 PM72 °FPassing clouds.9 mph69%29.97 "HgN/A
6:00 PM73 °FPassing clouds.12 mph61%29.96 "HgN/A
5:00 PM75 °FBroken clouds.12 mph57%29.95 "HgN/A
4:00 PM75 °FScattered clouds.6 mph65%29.94 "HgN/A
3:00 PM77 °FScattered clouds.7 mph57%29.92 "HgN/A
2:00 PM82 °FScattered showers. Scattered clouds.8 mph45%29.92 "HgN/A
1:00 PM86 °FScattered showers. Scattered clouds.7 mph40%29.94 "HgN/A
12:00 PM88 °FScattered clouds.8 mph35%29.97 "HgN/A
11:00 AM86 °FScattered clouds.8 mph38%29.98 "HgN/A
10:00 AM84 °FScattered clouds.10 mph40%29.99 "HgN/A
9:00 AM81 °FSunny.13 mph45%30.00 "Hg10 mi
8:00 AM79 °FSunny.9 mph48%30.00 "Hg10 mi
7:00 AM72 °FSunny.8 mph61%29.98 "Hg10 mi
6:00 AM70 °FSunny.13 mph64%29.95 "Hg10 mi
5:00 AM70 °FClear.18 mph64%29.94 "Hg10 mi
4:00 AM70 °FPassing clouds.16 mph64%29.92 "HgN/A
3:00 AM70 °FPassing clouds.15 mph69%29.92 "HgN/A
2:00 AM70 °FClear.17 mph69%29.92 "Hg10 mi
1:00 AM70 °FClear.18 mph69%29.94 "Hg10 mi
Weather by CustomWeather, © 2014

See weather overview